AMC-11 (28252 NORAD) Tracking and Keplerian Element Data

This shows tracking and keplerian element data for the satellite.

Feedback or suggestion? Click here.




ElementValue
Catalog28252
NameAMC-11
Epoch Orbit7587
Epoch Day34.66150624
Epoch Year2025
RAAN278.8205
Inclination0.0466
Eccentricity0.0002889
Argument of Perigee54.1232
Mean Anonmoly288.1577
Mean Motion1.00271739
Decay Rate-4.5E-07
L11 28252U 04017A 25034.66150624 -.00000045 00000+0 00000+0 0 9993
L22 28252 0.0466 278.8205 0002889 54.1232 288.1577 1.00271739 75878



Live tracking and technical data element details for AMC-11 (NORAD 28252). AMC-11 can be tracked NOW for your location showing map with azimuth and elevation plus other details from your city location.







IsCatalogInMostPopularTable: catalog: 28252, numindb: 347
Update: records affected: 1



GetName: 28252 AMC-11

Hit Count: updated at: Thu, 22 May 2025 03:31:12 GMT